Location: Norton
(51.3000°N, 0.8167°E)
Time: 02:04:15
(UTC+00:00)

Cosmos 1869 Rocket - Pass Details

Date: 03 March 2021
Orbit: 605 x 633 km, 82.5° (Epoch: 13 April)

Event Time Altitude Azimuth Distance (km) Brightness Sun altitude
Rises 19:51:27 0° 188° (S) 2,863 6.9 -21.0°
Reaches altitude 10° 19:53:38 10° 188° (S) 1,967 6.0 -21.3°
Maximum altitude 19:58:00 89° 101° (ESE) 624 3.4 -22.0°
Drops below altitude 10° 20:02:27 10° 11° (N) 2,001 6.2 -22.6°
Sets 20:04:42 0° 11° (N) 2,917 7.1 -22.9°
